Location: La Junie
(44.7428°N, 2.1773°E)
Time: 07:43:45
(UTC+00:00)

Cosmos 1992 Rocket - Pass Details

Date: 15 May 2026
Orbit: 755 x 760 km, 74.0° (Epoch: 5 June)

Event Time Altitude Azimuth Distance (km) Brightness Sun altitude
Rises 19:41:48 0° 178° (S) 3,204 6.9 -5.2°
Reaches altitude 10° 19:44:16 10° 171° (S) 2,283 6.1 -5.6°
Maximum altitude 19:49:04 40° 103° (ESE) 1,118 4.5 -6.3°
Drops below altitude 10° 19:53:53 10° 35° (NE) 2,296 6.5 -7.0°
Sets 19:56:23 0° 28° (NNE) 3,225 7.3 -7.4°
